Location: ???????
(55.3754°N, 39.3545°E)
Time: 21:33:27
(UTC+00:00)

Cosmos 2346 Rocket - Pass Details

Date: 14 April 2026
Orbit: 936 x 978 km, 82.9° (Epoch: 16 May)

Event Time Altitude Azimuth Distance (km) Brightness Sun altitude
Rises 19:30:12 0° 348° (NNW) 3,625 8.8 -20.9°
Reaches altitude 10° 19:32:42 10° 350° (N) 2,681 7.8 -21.0°
Maximum altitude 19:38:50 82° 77° (ENE) 971 4.4 -21.5°
Enters shadow 19:41:07 42° 161° (SSE) 1,342 4.7 -21.6°
